| time (UTC) | temp F | wind direction | speed MPH | gust MPH | rain 1hr in | rain 24hr in | rain mn in | humidity % | barometer mb |
| 20260905192103 | 93 | 85 | 4.0 | 8.0 | 0.00 | 0.00 | 0.00 | 66 | 1008.5 |
| 20260905191834 | 93 | 62 | 3.0 | 7.0 | 0.00 | 0.00 | 0.00 | 67 | 1008.5 |
| 20260905191104 | 93 | 124 | 3.0 | 10.0 | 0.00 | 0.00 | 0.00 | 65 | 1008.5 |
| 20260905190609 | 92 | 107 | 4.0 | 10.0 | 0.00 | 0.00 | 0.00 | 66 | 1008.5 |
| 20260905190103 | 91 | 61 | 4.0 | 12.0 | 0.00 | 0.00 | 0.00 | 69 | 1008.5 |
| 20260905185558 | 91 | 70 | 4.0 | 12.0 | 0.00 | 0.00 | 0.00 | 70 | 1008.6 |
| 20260905185328 | 91 | 79 | 3.0 | 10.0 | 0.00 | 0.00 | 0.00 | 67 | 1008.7 |
| 20260905184551 | 92 | 84 | 3.0 | 10.0 | 0.00 | 0.00 | 0.00 | 66 | 1008.7 |
| 20260905184051 | 93 | 53 | 3.0 | 9.0 | 0.00 | 0.00 | 0.00 | 62 | 1008.8 |
| 20260905183549 | 93 | 67 | 3.0 | 9.0 | 0.00 | 0.00 | 0.00 | 61 | 1008.8 |
| 20260905183050 | 93 | 98 | 3.0 | 6.0 | 0.00 | 0.00 | 0.00 | 61 | 1008.8 |
| 20260905182550 | 94 | 69 | 3.0 | 7.0 | 0.00 | 0.00 | 0.00 | 60 | 1009.0 |
| 20260905182048 | 94 | 89 | 3.0 | 7.0 | 0.00 | 0.00 | 0.00 | 61 | 1009.0 |
| 20260905181544 | 93 | 51 | 3.0 | 7.0 | 0.00 | 0.00 | 0.00 | 62 | 1009.0 |
| 20260905181316 | 94 | 44 | 2.0 | 5.0 | 0.00 | 0.00 | 0.00 | 61 | 1009.1 |
| 20260905180542 | 94 | 130 | 1.0 | 4.0 | 0.00 | 0.01 | 0.00 | 61 | 1009.3 |
| 20260905180315 | 94 | 95 | 2.0 | 5.0 | 0.00 | 0.01 | 0.00 | 60 | 1009.4 |
| 20260905175541 | 94 | 207 | 1.0 | 5.0 | 0.00 | 0.01 | 0.00 | 61 | 1009.5 |
| 20260905175039 | 94 | 108 | 2.0 | 6.0 | 0.00 | 0.01 | 0.00 | 64 | 1009.6 |
| 20260905174533 | 93 | 83 | 3.0 | 7.0 | 0.00 | 0.01 | 0.00 | 62 | 1009.7 |
| 20260905174039 | 93 | 94 | 2.0 | 7.0 | 0.00 | 0.01 | 0.00 | 62 | 1009.8 |
| 20260905173532 | 93 | 128 | 2.0 | 6.0 | 0.00 | 0.01 | 0.00 | 62 | 1009.9 |
| 20260905173028 | 93 | 88 | 2.0 | 6.0 | 0.00 | 0.01 | 0.00 | 63 | 1010.0 |
| 20260905172530 | 93 | 74 | 1.0 | 5.0 | 0.00 | 0.01 | 0.00 | 61 | 1010.0 |
| 20260905172029 | 92 | 95 | 2.0 | 4.0 | 0.00 | 0.01 | 0.00 | 61 | 1010.0 |
| 20260905171758 | 92 | 101 | 2.0 | 5.0 | 0.00 | 0.01 | 0.00 | 61 | 1010.0 |
| 20260905171027 | 93 | 46 | 2.0 | 5.0 | 0.00 | 0.01 | 0.00 | 64 | 1010.0 |
| 20260905170526 | 93 | 72 | 1.0 | 4.0 | 0.00 | 0.01 | 0.00 | 62 | 1010.0 |
| 20260905170023 | 93 | 87 | 0.0 | 3.0 | 0.00 | 0.01 | 0.00 | 63 | 1010.0 |
| 20260905165523 | 92 | 291 | 0.0 | 2.0 | 0.00 | 0.01 | 0.00 | 63 | 1010.2 |
| 20260905165022 | 91 | 121 | 0.0 | 1.0 | 0.00 | 0.01 | 0.00 | 62 | 1010.2 |
| 20260905164752 | 90 | 19 | 0.0 | 1.0 | 0.00 | 0.01 | 0.00 | 64 | 1010.3 |
| 20260905164022 | 90 | 19 | 0.0 | 1.0 | 0.00 | 0.01 | 0.00 | 65 | 1010.2 |
| 20260905163753 | 91 | 19 | 0.0 | 1.0 | 0.00 | 0.02 | 0.00 | 63 | 1010.2 |
| 20260905163019 | 90 | 322 | 0.0 | 1.0 | 0.00 | 0.03 | 0.00 | 64 | 1010.3 |
| 20260905162748 | 90 | 135 | 0.0 | 1.0 | 0.00 | 0.03 | 0.00 | 67 | 1010.3 |
| 20260905162017 | 90 | 134 | 0.0 | 3.0 | 0.00 | 0.04 | 0.00 | 71 | 1010.3 |
| 20260905161514 | 90 | 153 | 1.0 | 3.0 | 0.00 | 0.04 | 0.00 | 72 | 1010.3 |
| 20260905161015 | 90 | 98 | 0.0 | 2.0 | 0.00 | 0.04 | 0.00 | 71 | 1010.3 |
| 20260905160516 | 89 | 46 | 0.0 | 2.0 | 0.00 | 0.04 | 0.00 | 73 | 1010.3 |
| 20260905160014 | 88 | 58 | 0.0 | 2.0 | 0.00 | 0.05 | 0.00 | 74 | 1010.3 |
| 20260905155511 | 87 | 301 | 0.0 | 1.0 | 0.00 | 0.07 | 0.00 | 76 | 1010.2 |
| 20260905155011 | 87 | 300 | 0.0 | 1.0 | 0.00 | 0.07 | 0.00 | 76 | 1010.2 |
| 20260905154738 | 87 | 300 | 0.0 | 1.0 | 0.00 | 0.07 | 0.00 | 76 | 1010.3 |
| 20260905154003 | 87 | 300 | 0.0 | 2.0 | 0.00 | 0.07 | 0.00 | 77 | 1010.4 |
| 20260905153501 | 87 | 300 | 1.0 | 2.0 | 0.00 | 0.07 | 0.00 | 78 | 1010.4 |
| 20260905153231 | 87 | 265 | 1.0 | 2.0 | 0.00 | 0.07 | 0.00 | 78 | 1010.4 |
| 20260905152459 | 87 | 229 | 1.0 | 2.0 | 0.00 | 0.07 | 0.00 | 78 | 1010.4 |
| 20260905152225 | 88 | 314 | 1.0 | 2.0 | 0.00 | 0.07 | 0.00 | 78 | 1010.4 |
| 20260905151455 | 88 | 258 | 0.0 | 3.0 | 0.00 | 0.07 | 0.00 | 78 | 1010.4 |
| 20260905150955 | 89 | 58 | 1.0 | 3.0 | 0.00 | 0.07 | 0.00 | 79 | 1010.4 |
| 20260905150454 | 88 | 49 | 1.0 | 3.0 | 0.00 | 0.07 | 0.00 | 80 | 1010.4 |
| 20260905150230 | 88 | 89 | 0.0 | 2.0 | 0.00 | 0.07 | 0.00 | 80 | 1010.3 |
| 20260905145952 | 88 | 80 | 1.0 | 3.0 | 0.00 | 0.07 | 0.00 | 80 | 1010.4 |
| 20260905144944 | 88 | 233 | 0.0 | 2.0 | 0.00 | 0.07 | 0.00 | 80 | 1010.3 |
| 20260905144443 | 88 | 201 | 0.0 | 1.0 | 0.00 | 0.07 | 0.00 | 81 | 1010.3 |
| 20260905143942 | 89 | 219 | 0.0 | 1.0 | 0.00 | 0.07 | 0.00 | 81 | 1010.4 |
| 20260905143439 | 88 | 138 | 0.0 | 3.0 | 0.00 | 0.07 | 0.00 | 82 | 1010.3 |
| 20260905142939 | 88 | 248 | 0.0 | 3.0 | 0.00 | 0.07 | 0.00 | 81 | 1010.3 |
| 20260905142434 | 88 | 239 | 0.0 | 2.0 | 0.00 | 0.07 | 0.00 | 82 | 1010.3 |
| 20260905141932 | 87 | 100 | 0.0 | 2.0 | 0.00 | 0.07 | 0.00 | 83 | 1010.3 |
| 20260905141430 | 87 | 109 | 0.0 | 1.0 | 0.00 | 0.07 | 0.00 | 84 | 1010.4 |
| 20260905140928 | 86 | 92 | 0.0 | 1.0 | 0.00 | 0.07 | 0.00 | 85 | 1010.3 |
| 20260905140659 | 86 | 94 | 0.0 | 2.0 | 0.00 | 0.07 | 0.00 | 86 | 1010.2 |
| 20260905135920 | 86 | 101 | 0.0 | 2.0 | 0.00 | 0.07 | 0.00 | 86 | 1010.2 |
| 20260905135422 | 85 | 78 | 0.0 | 1.0 | 0.00 | 0.07 | 0.00 | 87 | 1010.2 |
| 20260905134920 | 85 | 72 | 1.0 | 2.0 | 0.00 | 0.07 | 0.00 | 88 | 1010.2 |
| 20260905134421 | 84 | 87 | 1.0 | 2.0 | 0.00 | 0.07 | 0.00 | 88 | 1010.1 |
| 20260905133921 | 84 | 93 | 1.0 | 1.0 | 0.00 | 0.07 | 0.00 | 88 | 1010.1 |
| 20260905133421 | 83 | 94 | 0.0 | 1.0 | 0.00 | 0.07 | 0.00 | 89 | 1010.1 |
| 20260905133150 | 83 | 120 | 0.0 | 1.0 | 0.00 | 0.07 | 0.00 | 90 | 1010.0 |
| 20260905132647 | 83 | 120 | 0.0 | 0.0 | 0.00 | 0.07 | 0.00 | 93 | 1010.0 |
| 20260905131918 | 82 | 120 | 0.0 | 0.0 | 0.00 | 0.07 | 0.00 | 95 | 1010.1 |
| 20260905131648 | 81 | 120 | 0.0 | 1.0 | 0.00 | 0.07 | 0.00 | 96 | 1010.1 |
| 20260905130916 | 80 | 120 | 0.0 | 1.0 | 0.00 | 0.07 | 0.00 | 97 | 1010.1 |
| 20260905130415 | 80 | 120 | 0.0 | 1.0 | 0.00 | 0.07 | 0.00 | 98 | 1009.9 |
| 20260905125912 | 79 | 120 | 0.0 | 1.0 | 0.00 | 0.07 | 0.00 | 98 | 1009.9 |
| 20260905125643 | 78 | 120 | 0.0 | 1.0 | 0.00 | 0.07 | 0.00 | 98 | 1009.9 |
| 20260905124921 | 78 | 121 | 0.0 | 0.0 | 0.00 | 0.07 | 0.00 | 98 | 1009.7 |
| 20260905124914 | 78 | 120 | 0.0 | 0.0 | 0.00 | 0.07 | 0.00 | 98 | 1009.9 |
| 20260905123909 | 78 | 121 | 0.0 | 0.0 | 0.00 | 0.07 | 0.00 | 98 | 1009.8 |
| 20260905123409 | 77 | 121 | 0.0 | 0.0 | 0.00 | 0.07 | 0.00 | 98 | 1009.6 |
| 20260905122905 | 77 | 120 | 0.0 | 0.0 | 0.00 | 0.07 | 0.00 | 98 | 1009.5 |
| 20260905122405 | 76 | 121 | 0.0 | 0.0 | 0.00 | 0.07 | 0.00 | 98 | 1009.5 |
| 20260905121903 | 76 | 120 | 0.0 | 0.0 | 0.00 | 0.07 | 0.00 | 98 | 1009.4 |
| 20260905121403 | 76 | 121 | 0.0 | 0.0 | 0.00 | 0.07 | 0.00 | 98 | 1009.4 |
| 20260905120909 | 76 | 120 | 0.0 | 0.0 | 0.00 | 0.07 | 0.00 | 98 | 1009.2 |
| 20260905120903 | 76 | 121 | 0.0 | 0.0 | 0.00 | 0.07 | 0.00 | 98 | 1009.3 |
| 20260905115859 | 76 | 121 | 0.0 | 0.0 | 0.00 | 0.07 | 0.00 | 98 | 1009.1 |
| 20260905115354 | 76 | 120 | 0.0 | 0.0 | 0.00 | 0.07 | 0.00 | 98 | 1009.0 |
| 20260905114854 | 76 | 120 | 0.0 | 0.0 | 0.00 | 0.07 | 0.00 | 98 | 1009.0 |
| 20260905114351 | 76 | 120 | 0.0 | 0.0 | 0.00 | 0.07 | 0.00 | 98 | 1009.0 |
| 20260905113851 | 76 | 120 | 0.0 | 0.0 | 0.00 | 0.07 | 0.00 | 98 | 1008.9 |
| 20260905113619 | 76 | 121 | 0.0 | 0.0 | 0.00 | 0.07 | 0.00 | 98 | 1008.9 |
| 20260905112847 | 76 | 121 | 0.0 | 0.0 | 0.00 | 0.07 | 0.00 | 97 | 1008.8 |
| 20260905112346 | 76 | 121 | 0.0 | 0.0 | 0.00 | 0.07 | 0.00 | 98 | 1008.8 |
| 20260905111850 | 76 | 120 | 0.0 | 0.0 | 0.00 | 0.07 | 0.00 | 97 | 1008.8 |
| 20260905111346 | 76 | 121 | 0.0 | 0.0 | 0.00 | 0.07 | 0.00 | 98 | 1008.8 |
| 20260905110845 | 76 | 121 | 0.0 | 0.0 | 0.00 | 0.07 | 0.00 | 97 | 1008.8 |
| 20260905110339 | 77 | 121 | 0.0 | 0.0 | 0.00 | 0.07 | 0.00 | 97 | 1008.8 |
| 20260905105837 | 77 | 120 | 0.0 | 0.0 | 0.00 | 0.07 | 0.00 | 98 | 1008.8 |
| 20260905105337 | 77 | 120 | 0.0 | 0.0 | 0.00 | 0.07 | 0.00 | 97 | 1008.7 |
| 20260905104837 | 76 | 121 | 0.0 | 0.0 | 0.00 | 0.07 | 0.00 | 97 | 1008.6 |
| 20260905104338 | 77 | 121 | 0.0 | 0.0 | 0.00 | 0.07 | 0.00 | 97 | 1008.5 |
| 20260905103837 | 77 | 121 | 0.0 | 0.0 | 0.00 | 0.07 | 0.00 | 97 | 1008.5 |
| 20260905103601 | 77 | 121 | 0.0 | 0.0 | 0.00 | 0.07 | 0.00 | 97 | 1008.5 |
| 20260905103101 | 77 | 120 | 0.0 | 0.0 | 0.00 | 0.07 | 0.00 | 97 | 1008.6 |
| 20260905102330 | 77 | 121 | 0.0 | 0.0 | 0.00 | 0.07 | 0.00 | 97 | 1008.6 |
| 20260905101831 | 77 | 120 | 0.0 | 0.0 | 0.00 | 0.07 | 0.00 | 97 | 1008.6 |
| 20260905101331 | 76 | 120 | 0.0 | 0.0 | 0.00 | 0.07 | 0.00 | 97 | 1008.6 |
| 20260905100831 | 76 | 121 | 0.0 | 0.0 | 0.00 | 0.07 | 0.00 | 97 | 1008.6 |
| 20260905100327 | 76 | 121 | 0.0 | 0.0 | 0.00 | 0.07 | 0.00 | 97 | 1008.6 |
| 20260905095827 | 77 | 121 | 0.0 | 0.0 | 0.00 | 0.07 | 0.00 | 97 | 1008.6 |
| 20260905095325 | 77 | 120 | 0.0 | 0.0 | 0.00 | 0.07 | 0.00 | 97 | 1008.6 |
| 20260905094825 | 77 | 120 | 0.0 | 0.0 | 0.00 | 0.07 | 0.00 | 97 | 1008.5 |
| 20260905094325 | 77 | 120 | 0.0 | 0.0 | 0.00 | 0.07 | 0.00 | 97 | 1008.5 |
| 20260905093825 | 77 | 121 | 0.0 | 0.0 | 0.00 | 0.07 | 0.00 | 97 | 1008.5 |
| 20260905093321 | 77 | 121 | 0.0 | 0.0 | 0.00 | 0.07 | 0.00 | 97 | 1008.5 |
| 20260905092820 | 77 | 121 | 0.0 | 0.0 | 0.00 | 0.07 | 0.00 | 97 | 1008.6 |
| 20260905092321 | 77 | 120 | 0.0 | 0.0 | 0.00 | 0.07 | 0.00 | 97 | 1008.6 |
| 20260905092052 | 77 | 121 | 0.0 | 0.0 | 0.00 | 0.07 | 0.00 | 97 | 1008.6 |
| 20260905091319 | 77 | 121 | 0.0 | 0.0 | 0.00 | 0.07 | 0.00 | 97 | 1008.5 |
| 20260905090819 | 77 | 121 | 0.0 | 0.0 | 0.00 | 0.07 | 0.00 | 97 | 1008.6 |
| 20260905090314 | 77 | 121 | 0.0 | 1.0 | 0.00 | 0.07 | 0.00 | 97 | 1008.5 |
| 20260905085815 | 77 | 120 | 0.0 | 1.0 | 0.00 | 0.07 | 0.00 | 97 | 1008.5 |
| 20260905085546 | 77 | 121 | 0.0 | 0.0 | 0.00 | 0.07 | 0.00 | 96 | 1008.5 |
| 20260905084815 | 77 | 121 | 0.0 | 0.0 | 0.00 | 0.07 | 0.00 | 96 | 1008.4 |
| 20260905084313 | 77 | 120 | 0.0 | 0.0 | 0.00 | 0.07 | 0.00 | 96 | 1008.4 |
| 20260905083813 | 78 | 121 | 0.0 | 0.0 | 0.00 | 0.07 | 0.00 | 96 | 1008.4 |
| 20260905083306 | 78 | 120 | 0.0 | 0.0 | 0.00 | 0.07 | 0.00 | 96 | 1008.5 |
| 20260905082805 | 78 | 121 | 0.0 | 0.0 | 0.00 | 0.07 | 0.00 | 96 | 1008.5 |
| 20260905082306 | 78 | 121 | 0.0 | 0.0 | 0.00 | 0.07 | 0.00 | 96 | 1008.5 |
| 20260905081801 | 78 | 121 | 0.0 | 0.0 | 0.00 | 0.07 | 0.00 | 96 | 1008.5 |
| 20260905081301 | 78 | 121 | 0.0 | 0.0 | 0.00 | 0.07 | 0.00 | 96 | 1008.5 |
| 20260905080755 | 78 | 121 | 0.0 | 0.0 | 0.00 | 0.07 | 0.00 | 96 | 1008.5 |
| 20260905080253 | 78 | 121 | 0.0 | 0.0 | 0.00 | 0.07 | 0.00 | 96 | 1008.6 |
| 20260905075752 | 78 | 121 | 0.0 | 0.0 | 0.00 | 0.07 | 0.00 | 96 | 1008.6 |
| 20260905075252 | 78 | 121 | 0.0 | 0.0 | 0.00 | 0.07 | 0.00 | 96 | 1008.6 |
| 20260905074753 | 78 | 121 | 0.0 | 0.0 | 0.00 | 0.07 | 0.00 | 96 | 1008.6 |
| 20260905074253 | 78 | 121 | 0.0 | 0.0 | 0.00 | 0.07 | 0.00 | 95 | 1008.6 |
| 20260905073750 | 78 | 121 | 0.0 | 0.0 | 0.00 | 0.07 | 0.00 | 95 | 1008.6 |
| 20260905073249 | 78 | 120 | 0.0 | 0.0 | 0.00 | 0.07 | 0.00 | 95 | 1008.6 |
| 20260905072749 | 78 | 120 | 0.0 | 0.0 | 0.00 | 0.07 | 0.00 | 95 | 1008.7 |
| 20260905072249 | 78 | 120 | 0.0 | 1.0 | 0.00 | 0.07 | 0.00 | 95 | 1008.8 |
| 20260905071747 | 78 | 121 | 0.0 | 1.0 | 0.00 | 0.07 | 0.00 | 95 | 1008.8 |
| 20260905071247 | 78 | 121 | 0.0 | 0.0 | 0.00 | 0.07 | 0.00 | 95 | 1008.8 |
| 20260905070743 | 78 | 121 | 0.0 | 0.0 | 0.00 | 0.07 | 0.00 | 95 | 1008.8 |
| 20260905070244 | 78 | 121 | 0.0 | 0.0 | 0.00 | 0.07 | 0.00 | 95 | 1008.9 |
| 20260905065744 | 79 | 121 | 0.0 | 1.0 | 0.00 | 0.07 | 0.00 | 95 | 1008.9 |
| 20260905065243 | 79 | 121 | 0.0 | 1.0 | 0.00 | 0.07 | 0.00 | 95 | 1009.0 |
| 20260905064741 | 79 | 121 | 0.0 | 0.0 | 0.00 | 0.07 | 0.00 | 95 | 1009.0 |
| 20260905064241 | 79 | 121 | 0.0 | 0.0 | 0.00 | 0.07 | 0.00 | 95 | 1009.0 |
| 20260905063735 | 79 | 120 | 0.0 | 0.0 | 0.00 | 0.07 | 0.00 | 95 | 1009.0 |
| 20260905063235 | 79 | 121 | 0.0 | 0.0 | 0.00 | 0.07 | 0.00 | 95 | 1009.0 |
| 20260905062736 | 79 | 121 | 0.0 | 0.0 | 0.00 | 0.07 | 0.00 | 95 | 1009.1 |
| 20260905062233 | 79 | 121 | 0.0 | 0.0 | 0.00 | 0.07 | 0.00 | 94 | 1009.2 |
| 20260905061730 | 79 | 120 | 0.0 | 0.0 | 0.00 | 0.07 | 0.00 | 94 | 1009.2 |
| 20260905061230 | 79 | 121 | 0.0 | 0.0 | 0.00 | 0.07 | 0.00 | 94 | 1009.2 |
| 20260905060730 | 79 | 121 | 0.0 | 0.0 | 0.00 | 0.07 | 0.00 | 94 | 1009.2 |
| 20260905060230 | 80 | 120 | 0.0 | 0.0 | 0.00 | 0.07 | 0.00 | 94 | 1009.3 |
| 20260905055731 | 80 | 121 | 0.0 | 0.0 | 0.00 | 0.07 | 0.00 | 94 | 1009.3 |
| 20260905055230 | 80 | 121 | 0.0 | 0.0 | 0.00 | 0.07 | 0.00 | 93 | 1009.2 |
| 20260905054730 | 80 | 121 | 0.0 | 0.0 | 0.00 | 0.07 | 0.00 | 93 | 1009.3 |
| 20260905054229 | 80 | 121 | 0.0 | 1.0 | 0.00 | 0.07 | 0.00 | 93 | 1009.2 |
| 20260905054002 | 80 | 121 | 0.0 | 1.0 | 0.00 | 0.07 | 0.00 | 93 | 1009.2 |
| 20260905053226 | 80 | 121 | 0.0 | 1.0 | 0.00 | 0.07 | 0.00 | 93 | 1009.3 |
| 20260905052725 | 80 | 121 | 0.0 | 2.0 | 0.00 | 0.07 | 0.00 | 93 | 1009.3 |
| 20260905052230 | 80 | 121 | 0.0 | 2.0 | 0.00 | 0.07 | 0.00 | 93 | 1009.3 |
| 20260905051727 | 80 | 117 | 0.0 | 1.0 | 0.00 | 0.07 | 0.00 | 93 | 1009.3 |
| 20260905051227 | 80 | 117 | 0.0 | 1.0 | 0.00 | 0.07 | 0.00 | 93 | 1009.3 |
| 20260905050727 | 80 | 117 | 0.0 | 1.0 | 0.00 | 0.07 | 0.00 | 93 | 1009.3 |
| 20260905050220 | 80 | 202 | 0.0 | 0.0 | 0.00 | 0.07 | 0.00 | 93 | 1009.3 |
| 20260905045720 | 80 | 205 | 0.0 | 0.0 | 0.00 | 0.07 | 0.07 | 93 | 1009.4 |
| 20260905045218 | 80 | 202 | 0.0 | 0.0 | 0.00 | 0.07 | 0.07 | 93 | 1009.3 |
| 20260905044716 | 80 | 202 | 0.0 | 0.0 | 0.00 | 0.07 | 0.07 | 92 | 1009.2 |
| 20260905044216 | 80 | 202 | 0.0 | 0.0 | 0.00 | 0.07 | 0.07 | 92 | 1009.2 |
| 20260905043716 | 80 | 202 | 0.0 | 0.0 | 0.00 | 0.07 | 0.07 | 92 | 1009.3 |
| 20260905043445 | 80 | 203 | 0.0 | 0.0 | 0.00 | 0.07 | 0.07 | 92 | 1009.3 |
| 20260905042713 | 81 | 203 | 0.0 | 1.0 | 0.00 | 0.07 | 0.07 | 92 | 1009.5 |
| 20260905042444 | 81 | 203 | 0.0 | 1.0 | 0.00 | 0.07 | 0.07 | 92 | 1009.5 |
| 20260905041709 | 81 | 127 | 0.0 | 0.0 | 0.00 | 0.07 | 0.07 | 92 | 1009.5 |
| 20260905041207 | 81 | 127 | 0.0 | 0.0 | 0.00 | 0.07 | 0.07 | 92 | 1009.5 |
| 20260905040706 | 81 | 127 | 0.0 | 0.0 | 0.00 | 0.07 | 0.07 | 91 | 1009.5 |
| 20260905040205 | 81 | 127 | 0.0 | 0.0 | 0.00 | 0.07 | 0.07 | 91 | 1009.6 |
| 20260905035707 | 81 | 127 | 0.0 | 0.0 | 0.00 | 0.07 | 0.07 | 91 | 1009.5 |
| 20260905035429 | 81 | 127 | 0.0 | 1.0 | 0.00 | 0.07 | 0.07 | 90 | 1009.5 |
| 20260905034657 | 81 | 127 | 0.0 | 1.0 | 0.00 | 0.07 | 0.07 | 90 | 1009.6 |
| 20260905034154 | 81 | 127 | 0.0 | 1.0 | 0.00 | 0.07 | 0.07 | 90 | 1009.6 |
| 20260905033653 | 81 | 127 | 0.0 | 2.0 | 0.00 | 0.07 | 0.07 | 90 | 1009.6 |
| 20260905033152 | 81 | 127 | 0.0 | 2.0 | 0.00 | 0.07 | 0.07 | 89 | 1009.8 |
| 20260905032646 | 82 | 89 | 0.0 | 3.0 | 0.00 | 0.07 | 0.07 | 89 | 1009.7 |
| 20260905032416 | 82 | 115 | 0.0 | 3.0 | 0.00 | 0.07 | 0.07 | 89 | 1009.8 |
| 20260905031643 | 82 | 98 | 0.0 | 2.0 | 0.00 | 0.07 | 0.07 | 89 | 1009.8 |
| 20260905031140 | 82 | 109 | 1.0 | 3.0 | 0.00 | 0.07 | 0.07 | 89 | 1009.8 |
| 20260905030639 | 82 | 110 | 1.0 | 3.0 | 0.00 | 0.07 | 0.07 | 89 | 1009.7 |
| 20260905030138 | 82 | 123 | 0.0 | 2.0 | 0.00 | 0.07 | 0.07 | 88 | 1009.7 |
| 20260905025911 | 82 | 130 | 0.0 | 2.0 | 0.00 | 0.07 | 0.07 | 88 | 1009.7 |
| 20260905025636 | 82 | 130 | 0.0 | 2.0 | 0.00 | 0.07 | 0.07 | 88 | 1009.7 |
| 20260905025136 | 82 | 105 | 1.0 | 2.0 | 0.00 | 0.07 | 0.07 | 88 | 1009.6 |
| 20260905024636 | 82 | 75 | 1.0 | 2.0 | 0.00 | 0.07 | 0.07 | 88 | 1009.6 |
| 20260905024134 | 82 | 127 | 1.0 | 3.0 | 0.00 | 0.07 | 0.07 | 88 | 1009.6 |
| 20260905023634 | 82 | 116 | 0.0 | 3.0 | 0.00 | 0.07 | 0.07 | 87 | 1009.6 |
| 20260905023131 | 82 | 128 | 1.0 | 3.0 | 0.00 | 0.07 | 0.07 | 87 | 1009.5 |
| 20260905022630 | 82 | 99 | 1.0 | 3.0 | 0.00 | 0.07 | 0.07 | 87 | 1009.3 |
| 20260905022129 | 83 | 103 | 1.0 | 3.0 | 0.00 | 0.07 | 0.07 | 87 | 1009.3 |
| 20260905021630 | 83 | 68 | 1.0 | 3.0 | 0.00 | 0.07 | 0.07 | 86 | 1009.2 |
| 20260905021359 | 83 | 116 | 1.0 | 3.0 | 0.00 | 0.07 | 0.07 | 86 | 1009.2 |
| 20260905020858 | 83 | 125 | 1.0 | 3.0 | 0.00 | 0.07 | 0.07 | 86 | 1009.2 |
| 20260905020122 | 83 | 105 | 1.0 | 2.0 | 0.00 | 0.07 | 0.07 | 85 | 1009.1 |
| 20260905015621 | 83 | 108 | 1.0 | 3.0 | 0.00 | 0.07 | 0.07 | 85 | 1009.0 |
| 20260905015118 | 83 | 112 | 1.0 | 3.0 | 0.00 | 0.07 | 0.07 | 85 | 1009.0 |
| 20260905014617 | 83 | 94 | 1.0 | 4.0 | 0.00 | 0.07 | 0.07 | 84 | 1008.9 |
| 20260905014116 | 83 | 126 | 1.0 | 4.0 | 0.00 | 0.07 | 0.07 | 84 | 1008.9 |
| 20260905013610 | 84 | 124 | 0.0 | 2.0 | 0.00 | 0.07 | 0.07 | 84 | 1008.9 |
| 20260905013108 | 84 | 133 | 0.0 | 2.0 | 0.00 | 0.07 | 0.07 | 83 | 1008.8 |
| 20260905012606 | 84 | 124 | 0.0 | 2.0 | 0.00 | 0.07 | 0.07 | 82 | 1008.6 |
| 20260905012104 | 84 | 130 | 0.0 | 2.0 | 0.00 | 0.07 | 0.07 | 82 | 1008.7 |
| 20260905011604 | 85 | 122 | 1.0 | 3.0 | 0.00 | 0.07 | 0.07 | 81 | 1008.7 |
| 20260905011101 | 85 | 102 | 1.0 | 6.0 | 0.00 | 0.07 | 0.07 | 80 | 1008.5 |
| 20260905010600 | 85 | 115 | 1.0 | 6.0 | 0.00 | 0.07 | 0.07 | 80 | 1008.5 |
| 20260905010058 | 85 | 120 | 1.0 | 5.0 | 0.00 | 0.07 | 0.07 | 79 | 1008.4 |
| 20260905005558 | 85 | 122 | 1.0 | 5.0 | 0.00 | 0.07 | 0.07 | 79 | 1008.4 |
| 20260905005058 | 86 | 120 | 2.0 | 3.0 | 0.00 | 0.07 | 0.07 | 78 | 1008.3 |
| 20260905004558 | 86 | 75 | 1.0 | 4.0 | 0.00 | 0.07 | 0.07 | 78 | 1008.5 |
| 20260905004051 | 86 | 129 | 1.0 | 4.0 | 0.00 | 0.07 | 0.07 | 78 | 1008.5 |
| 20260905003552 | 86 | 116 | 0.0 | 2.0 | 0.00 | 0.07 | 0.07 | 77 | 1008.4 |
| 20260905003325 | 87 | 134 | 1.0 | 4.0 | 0.00 | 0.07 | 0.07 | 77 | 1008.3 |
| 20260905002552 | 87 | 143 | 1.0 | 4.0 | 0.00 | 0.07 | 0.07 | 76 | 1008.1 |
| 20260905002052 | 87 | 132 | 1.0 | 4.0 | 0.00 | 0.07 | 0.07 | 76 | 1008.0 |
| 20260905001551 | 87 | 126 | 1.0 | 4.0 | 0.00 | 0.07 | 0.07 | 75 | 1008.0 |
| 20260905001045 | 88 | 134 | 1.0 | 3.0 | 0.00 | 0.07 | 0.07 | 75 | 1008.0 |
| 20260905000546 | 88 | 136 | 1.0 | 3.0 | 0.00 | 0.07 | 0.07 | 74 | 1008.0 |
| 20260905000045 | 89 | 91 | 1.0 | 4.0 | 0.00 | 0.07 | 0.07 | 72 | 1007.9 |
| 20260904235546 | 89 | 110 | 1.0 | 4.0 | 0.00 | 0.07 | 0.07 | 71 | 1008.0 |
| 20260904235046 | 90 | 85 | 2.0 | 5.0 | 0.00 | 0.07 | 0.07 | 70 | 1008.0 |
| 20260904234546 | 90 | 84 | 2.0 | 5.0 | 0.00 | 0.07 | 0.07 | 69 | 1007.9 |
| 20260904234039 | 90 | 94 | 2.0 | 5.0 | 0.00 | 0.07 | 0.07 | 69 | 1008.0 |
| 20260904233539 | 90 | 109 | 2.0 | 7.0 | 0.00 | 0.07 | 0.07 | 69 | 1008.0 |
| 20260904233040 | 90 | 68 | 2.0 | 7.0 | 0.00 | 0.07 | 0.07 | 68 | 1008.0 |
| 20260904232540 | 90 | 146 | 3.0 | 8.0 | 0.00 | 0.07 | 0.07 | 69 | 1008.0 |
| 20260904232040 | 90 | 95 | 3.0 | 8.0 | 0.00 | 0.07 | 0.07 | 69 | 1008.0 |
| 20260904231539 | 90 | 94 | 2.0 | 7.0 | 0.00 | 0.07 | 0.07 | 70 | 1008.1 |
| 20260904231036 | 90 | 73 | 1.0 | 6.0 | 0.00 | 0.07 | 0.07 | 71 | 1008.0 |
| 20260904230534 | 90 | 128 | 1.0 | 6.0 | 0.00 | 0.07 | 0.07 | 71 | 1008.0 |
| 20260904230033 | 89 | 91 | 1.0 | 3.0 | 0.00 | 0.07 | 0.07 | 72 | 1008.0 |
| 20260904225534 | 88 | 153 | 2.0 | 3.0 | 0.00 | 0.07 | 0.07 | 74 | 1008.0 |
| 20260904225032 | 88 | 187 | 2.0 | 5.0 | 0.00 | 0.07 | 0.07 | 74 | 1008.0 |
| 20260904224801 | 88 | 123 | 1.0 | 5.0 | 0.00 | 0.07 | 0.07 | 74 | 1008.0 |
| 20260904224027 | 88 | 87 | 1.0 | 3.0 | 0.00 | 0.07 | 0.07 | 74 | 1008.1 |
| 20260904223526 | 89 | 78 | 1.0 | 5.0 | 0.00 | 0.07 | 0.07 | 73 | 1008.1 |
| 20260904223023 | 89 | 153 | 2.0 | 6.0 | 0.00 | 0.07 | 0.07 | 72 | 1008.1 |
| 20260904222523 | 90 | 143 | 2.0 | 6.0 | 0.00 | 0.07 | 0.07 | 70 | 1008.2 |
| 20260904222023 | 91 | 125 | 1.0 | 5.0 | 0.00 | 0.07 | 0.07 | 67 | 1008.2 |
| 20260904221523 | 92 | 120 | 1.0 | 2.0 | 0.00 | 0.07 | 0.07 | 64 | 1008.1 |
| 20260904221021 | 92 | 132 | 1.0 | 5.0 | 0.00 | 0.07 | 0.07 | 63 | 1008.1 |
| 20260904220521 | 92 | 84 | 1.0 | 5.0 | 0.00 | 0.07 | 0.07 | 63 | 1008.0 |
| 20260904220022 | 93 | 76 | 1.0 | 3.0 | 0.00 | 0.07 | 0.07 | 61 | 1007.9 |
| 20260904215521 | 93 | 115 | 2.0 | 6.0 | 0.00 | 0.07 | 0.07 | 60 | 1008.0 |
| 20260904215021 | 94 | 91 | 3.0 | 6.0 | 0.00 | 0.07 | 0.07 | 59 | 1008.1 |
| 20260904214522 | 95 | 105 | 2.0 | 5.0 | 0.00 | 0.07 | 0.07 | 59 | 1008.2 |
| 20260904214014 | 96 | 62 | 1.0 | 4.0 | 0.00 | 0.07 | 0.07 | 57 | 1008.2 |
| 20260904213516 | 97 | 67 | 1.0 | 3.0 | 0.00 | 0.07 | 0.07 | 58 | 1008.2 |
| 20260904213014 | 96 | 70 | 1.0 | 4.0 | 0.00 | 0.07 | 0.07 | 60 | 1008.3 |
| 20260904212512 | 96 | 239 | 1.0 | 4.0 | 0.00 | 0.07 | 0.07 | 61 | 1008.4 |
| 20260904212013 | 95 | 96 | 1.0 | 4.0 | 0.00 | 0.07 | 0.07 | 60 | 1008.4 |
| 20260904211513 | 95 | 68 | 2.0 | 5.0 | 0.00 | 0.07 | 0.07 | 61 | 1008.4 |
| 20260904211014 | 94 | 236 | 2.0 | 5.0 | 0.00 | 0.07 | 0.07 | 65 | 1008.5 |
| 20260904210740 | 94 | 95 | 2.0 | 4.0 | 0.00 | 0.07 | 0.07 | 63 | 1008.6 |
| 20260904210242 | 94 | 110 | 2.0 | 6.0 | 0.00 | 0.07 | 0.07 | 65 | 1008.6 |
| 20260904205510 | 94 | 91 | 2.0 | 6.0 | 0.00 | 0.07 | 0.07 | 66 | 1008.6 |
| 20260904205008 | 94 | 122 | 1.0 | 7.0 | 0.00 | 0.07 | 0.07 | 65 | 1008.7 |
| 20260904204515 | 94 | 138 | 1.0 | 4.0 | 0.00 | 0.07 | 0.07 | 65 | 1008.8 |
| 20260904204508 | 94 | 115 | 1.0 | 7.0 | 0.00 | 0.07 | 0.07 | 62 | 1008.7 |
| 20260904203510 | 94 | 100 | 1.0 | 4.0 | 0.00 | 0.07 | 0.07 | 65 | 1008.9 |
| 20260904203236 | 94 | 155 | 1.0 | 3.0 | 0.00 | 0.07 | 0.07 | 65 | 1009.0 |
| 20260904202736 | 93 | 257 | 1.0 | 3.0 | 0.00 | 0.08 | 0.07 | 69 | 1009.1 |
| 20260904202006 | 93 | 81 | 1.0 | 3.0 | 0.00 | 0.08 | 0.07 | 68 | 1009.1 |
| 20260904201505 | 92 | 136 | 1.0 | 3.0 | 0.00 | 0.09 | 0.07 | 69 | 1009.1 |
| 20260904201005 | 91 | 79 | 2.0 | 4.0 | 0.00 | 0.09 | 0.07 | 72 | 1009.2 |
| 20260904200506 | 91 | 71 | 1.0 | 4.0 | 0.00 | 0.09 | 0.07 | 71 | 1009.3 |
| 20260904200000 | 92 | 64 | 1.0 | 3.0 | 0.00 | 0.09 | 0.07 | 72 | 1009.3 |
| 20260904195502 | 91 | 103 | 1.0 | 4.0 | 0.00 | 0.09 | 0.07 | 74 | 1009.4 |
| 20260904195232 | 89 | 104 | 2.0 | 5.0 | 0.00 | 0.09 | 0.07 | 75 | 1009.5 |
| 20260904194500 | 89 | 82 | 2.0 | 5.0 | 0.00 | 0.09 | 0.07 | 76 | 1009.6 |
| 20260904194002 | 89 | 51 | 1.0 | 4.0 | 0.00 | 0.09 | 0.07 | 75 | 1009.7 |
| 20260904193502 | 89 | 91 | 1.0 | 4.0 | 0.00 | 0.09 | 0.07 | 77 | 1009.7 |
| 20260904193227 | 88 | 105 | 1.0 | 4.0 | 0.00 | 0.09 | 0.07 | 78 | 1009.7 |
| 20260904192456 | 88 | 94 | 2.0 | 4.0 | 0.00 | 0.09 | 0.07 | 78 | 1009.7 |